When you browse on this site, cookies collect data to enhance your experience and personalize the content and advertising you see.
Visit our Privacy Policy to learn more. By continuing to use the site, you agree to this use of cookies and data.
  • In Portugal
  • List of Countries
  • For 7 days
  • Water Temperature
  • Satellite Maps
  • Weather Map
  • Weather Widgets
  • user-avatar
    Login

    Hourly Weather Sveti Vlas

    Today, 25 May, Saturday

    Time Temperature Precipitation Wind Pressure Humidity
    00:00 +14°C° 0 mm 3 mps 750 mmHg 90%
    01:00 +14°C° 0 mm 4 mps 750 mmHg 90%
    02:00 +13°C° 0 mm 4 mps 750 mmHg 90%
    03:00 +13°C° 0 mm 4 mps 751 mmHg 89%
    04:00 +13°C° 0 mm 4 mps 751 mmHg 89%
    05:00 +13°C° 0 mm 5 mps 751 mmHg 88%
    06:00 +14°C° 0 mm 5 mps 751 mmHg 83%
    07:00 +16°C° 0 mm 5 mps 752 mmHg 78%
    08:00 +17°C° 0 mm 5 mps 752 mmHg 74%
    09:00 +20°C° 0 mm 5 mps 752 mmHg 69%
    10:00 +21°C° 0 mm 4 mps 752 mmHg 65%
    11:00 +23°C° 0 mm 4 mps 752 mmHg 61%
    12:00 +24°C° 0.6 mm 3 mps 752 mmHg 62%
    13:00 +24°C° 0.6 mm 3 mps 752 mmHg 64%
    14:00 +24°C° 0.6 mm 2 mps 752 mmHg 65%
    15:00 +24°C° 0.7 mm 2 mps 752 mmHg 68%
    16:00 +24°C° 0.7 mm 2 mps 752 mmHg 70%
    17:00 +23°C° 0.7 mm 2 mps 752 mmHg 73%
    18:00 +21°C° 0.1 mm 2 mps 752 mmHg 76%
    19:00 +20°C° 0.1 mm 2 mps 752 mmHg 78%
    20:00 +18°C° 0.1 mm 2 mps 752 mmHg 81%
    21:00 +18°C° 0 mm 2 mps 752 mmHg 82%
    22:00 +17°C° 0 mm 2 mps 753 mmHg 84%
    23:00 +17°C° 0 mm 3 mps 753 mmHg 85%

    Tomorrow, 26 May, Sunday

    Time Temperature Precipitation Wind Pressure Humidity
    00:00 +16°C° 0 mm 3 mps 753 mmHg 86%
    01:00 +16°C° 0 mm 3 mps 753 mmHg 86%
    02:00 +16°C° 0 mm 3 mps 754 mmHg 87%
    03:00 +14°C° 0 mm 3 mps 754 mmHg 87%
    04:00 +14°C° 0 mm 3 mps 754 mmHg 86%
    05:00 +14°C° 0 mm 3 mps 754 mmHg 86%
    06:00 +17°C° 0 mm 3 mps 754 mmHg 81%
    07:00 +19°C° 0 mm 3 mps 755 mmHg 76%
    08:00 +21°C° 0 mm 3 mps 755 mmHg 71%
    09:00 +24°C° 0 mm 2 mps 755 mmHg 65%
    10:00 +25°C° 0 mm 1 mps 755 mmHg 60%
    11:00 +25°C° 0 mm 0 mps 755 mmHg 54%
    12:00 +27°C° 0 mm 1 mps 755 mmHg 53%
    13:00 +27°C° 0 mm 2 mps 755 mmHg 53%
    14:00 +27°C° 0 mm 3 mps 755 mmHg 52%
    15:00 +27°C° 0 mm 3 mps 755 mmHg 56%
    16:00 +26°C° 0 mm 4 mps 755 mmHg 61%
    17:00 +25°C° 0 mm 4 mps 755 mmHg 65%
    18:00 +22°C° 0 mm 4 mps 755 mmHg 69%
    19:00 +20°C° 0 mm 3 mps 755 mmHg 73%
    20:00 +19°C° 0 mm 3 mps 755 mmHg 78%
    21:00 +18°C° 0 mm 2 mps 755 mmHg 79%
    22:00 +18°C° 0 mm 2 mps 756 mmHg 80%
    23:00 +19°C° 0 mm 1 mps 756 mmHg 81%

    Day after tomorrow, 27 May, Monday

    Time Temperature Precipitation Wind Pressure Humidity
    00:00 +18°C° 0 mm 1 mps 756 mmHg 82%
    01:00 +18°C° 0 mm 1 mps 756 mmHg 84%
    02:00 +18°C° 0 mm 1 mps 756 mmHg 85%
    03:00 +18°C° 0 mm 1 mps 755 mmHg 86%
    04:00 +16°C° 0 mm 0 mps 755 mmHg 87%
    05:00 +15°C° 0 mm 0 mps 755 mmHg 88%
    06:00 +19°C° 0 mm 1 mps 756 mmHg 82%
    07:00 +21°C° 0 mm 1 mps 756 mmHg 76%
    08:00 +23°C° 0 mm 1 mps 756 mmHg 70%
    09:00 +24°C° 0 mm 2 mps 756 mmHg 65%
    10:00 +25°C° 0 mm 3 mps 756 mmHg 61%
    11:00 +26°C° 0 mm 3 mps 756 mmHg 56%
    12:00 +25°C° 0 mm 4 mps 756 mmHg 57%
    13:00 +25°C° 0 mm 4 mps 756 mmHg 57%
    14:00 +25°C° 0 mm 5 mps 755 mmHg 58%
    15:00 +23°C° 0 mm 4 mps 755 mmHg 62%
    16:00 +23°C° 0 mm 4 mps 755 mmHg 66%
    17:00 +22°C° 0 mm 4 mps 755 mmHg 70%
    18:00 +20°C° 0 mm 4 mps 755 mmHg 77%
    19:00 +19°C° 0 mm 3 mps 755 mmHg 84%
    20:00 +17°C° 0 mm 3 mps 755 mmHg 92%
    21:00 +17°C° 0 mm 2 mps 755 mmHg 92%
    22:00 +17°C° 0 mm 2 mps 755 mmHg 93%
    23:00 +16°C° 0 mm 2 mps 755 mmHg 93%

    28 May, Tuesday

    Time Temperature Precipitation Wind Pressure Humidity
    00:00 +16°C° 0 mm 2 mps 754 mmHg 93%
    01:00 +16°C° 0 mm 2 mps 754 mmHg 92%
    02:00 +16°C° 0 mm 2 mps 754 mmHg 92%
    03:00 +16°C° 0 mm 2 mps 754 mmHg 93%
    04:00 +16°C° 0 mm 1 mps 753 mmHg 93%
    05:00 +15°C° 0 mm 1 mps 753 mmHg 93%
    06:00 +18°C° 0 mm 1 mps 753 mmHg 86%
    07:00 +20°C° 0 mm 1 mps 753 mmHg 79%
    08:00 +22°C° 0 mm 1 mps 753 mmHg 72%
    09:00 +23°C° 0.1 mm 2 mps 753 mmHg 68%
    10:00 +25°C° 0.1 mm 2 mps 753 mmHg 64%
    11:00 +26°C° 0.1 mm 2 mps 753 mmHg 60%
    12:00 +26°C° 0 mm 3 mps 752 mmHg 60%
    13:00 +27°C° 0 mm 4 mps 752 mmHg 60%
    14:00 +27°C° 0 mm 4 mps 752 mmHg 60%
    15:00 +26°C° 0 mm 4 mps 751 mmHg 63%
    16:00 +26°C° 0 mm 4 mps 751 mmHg 66%
    17:00 +25°C° 0 mm 4 mps 751 mmHg 69%
    18:00 +23°C° 0 mm 4 mps 751 mmHg 74%
    19:00 +21°C° 0 mm 3 mps 751 mmHg 79%
    20:00 +20°C° 0 mm 3 mps 751 mmHg 84%
    21:00 +20°C° 0 mm 3 mps 751 mmHg 83%
    22:00 +20°C° 0 mm 3 mps 751 mmHg 81%
    23:00 +20°C° 0 mm 3 mps 751 mmHg 79%

    29 May, Wednesday

    Time Temperature Precipitation Wind Pressure Humidity
    00:00 +19°C° 0 mm 3 mps 751 mmHg 72%
    01:00 +18°C° 0 mm 3 mps 751 mmHg 66%
    02:00 +17°C° 0 mm 3 mps 751 mmHg 59%
    03:00 +17°C° 0 mm 3 mps 751 mmHg 62%
    04:00 +17°C° 0 mm 4 mps 751 mmHg 66%
    05:00 +17°C° 0 mm 4 mps 751 mmHg 70%
    06:00 +19°C° 0 mm 4 mps 751 mmHg 67%
    07:00 +21°C° 0 mm 4 mps 751 mmHg 65%
    08:00 +23°C° 0 mm 4 mps 752 mmHg 63%
    09:00 +26°C° 0 mm 3 mps 752 mmHg 57%
    10:00 +28°C° 0 mm 3 mps 752 mmHg 52%
    11:00 +29°C° 0 mm 2 mps 752 mmHg 47%
    12:00 +30°C° 0 mm 3 mps 752 mmHg 45%
    13:00 +30°C° 0 mm 3 mps 752 mmHg 44%
    14:00 +31°C° 0 mm 3 mps 752 mmHg 42%
    15:00 +30°C° 0 mm 3 mps 752 mmHg 46%
    16:00 +30°C° 0 mm 2 mps 752 mmHg 49%
    17:00 +30°C° 0 mm 2 mps 752 mmHg 52%
    18:00 +28°C° 0 mm 2 mps 752 mmHg 55%
    19:00 +26°C° 0 mm 2 mps 752 mmHg 59%
    20:00 +24°C° 0 mm 2 mps 753 mmHg 63%
    21:00 +23°C° 0 mm 2 mps 753 mmHg 66%
    22:00 +23°C° 0 mm 2 mps 753 mmHg 68%
    23:00 +21°C° 0 mm 2 mps 753 mmHg 71%

    30 May, Thursday

    Time Temperature Precipitation Wind Pressure Humidity
    00:00 +21°C° 0 mm 2 mps 753 mmHg 72%
    01:00 +21°C° 0 mm 2 mps 753 mmHg 73%
    02:00 +20°C° 0 mm 2 mps 753 mmHg 75%
    03:00 +20°C° 0 mm 2 mps 754 mmHg 76%
    04:00 +20°C° 0 mm 2 mps 754 mmHg 77%
    05:00 +19°C° 0 mm 2 mps 754 mmHg 78%
    06:00 +21°C° 0 mm 2 mps 754 mmHg 72%
    07:00 +24°C° 0 mm 2 mps 754 mmHg 67%
    08:00 +26°C° 0 mm 2 mps 754 mmHg 61%
    09:00 +27°C° 0 mm 2 mps 754 mmHg 57%
    10:00 +29°C° 0 mm 2 mps 754 mmHg 52%
    11:00 +30°C° 0 mm 2 mps 754 mmHg 47%
    12:00 +30°C° 0 mm 2 mps 754 mmHg 48%
    13:00 +30°C° 0 mm 3 mps 754 mmHg 49%
    14:00 +30°C° 0 mm 3 mps 754 mmHg 50%
    15:00 +29°C° 0.1 mm 3 mps 754 mmHg 53%
    16:00 +29°C° 0.1 mm 3 mps 754 mmHg 56%
    17:00 +28°C° 0.1 mm 2 mps 753 mmHg 59%
    18:00 +26°C° 0 mm 2 mps 753 mmHg 64%
    19:00 +25°C° 0 mm 2 mps 753 mmHg 68%
    20:00 +23°C° 0 mm 1 mps 753 mmHg 73%
    21:00 +23°C° 0 mm 1 mps 753 mmHg 73%
    22:00 +22°C° 0 mm 1 mps 753 mmHg 74%
    23:00 +22°C° 0 mm 1 mps 753 mmHg 75%
    Show more